Torna al catalogo

STARLINK-31727

AttivoComunicazioniVLEO
NORAD 59638·PAYLOAD·🇺🇸 United States

Lanciato May 3, 2024 da Cape Canaveral Space Force Station

Loading…

Prossimi Passaggi (prossime 24 ore)

TLE

AggiornatoSource: CelesTrak SupGP

Epoca: Sep 14, 2026, 20:36 UTC

1 59638C 24082H   26257.85881944 -.00041916  00000+0 -15183-2 0  2575
2 59638  43.0024 151.8784 0001466 265.3735 262.7904 15.27596741    16

Traccia STARLINK-31727 in tempo reale con AllMySat

Download on the App Store